Location: *
(47.6569°N, 7.4256°E)
Time: 12:59:28
(UTC+00:00)

Cosmos 2237 Rocket - Pass Details

Date: 14 December 2019
Orbit: 836 x 849 km, 71.0° (Epoch: 18 January)

Event Time Altitude Azimuth Distance (km) Brightness Sun altitude
Rises 18:17:43 0° 259° (W) 3,409 6.7 -25.6°
Reaches altitude 10° 18:21:00 10° 278° (W) 2,476 5.6 -26.2°
Maximum altitude 18:24:49 18° 320° (NW) 1,964 4.4 -26.8°
Enters shadow 18:28:25 11° 1° (N) 2,423 4.5 -27.4°
